| time (UTC) | temp F | wind direction | speed MPH | gust MPH | rain 1hr in | rain 24hr in | rain mn in | humidity % | barometer mb |
| 20260507153404 | 65 | 51 | 3.0 | 10.0 | 0.00 | 0.13 | 0.00 | 52 | 1018.3 |
| 20260507152905 | 64 | 43 | 3.0 | 9.0 | 0.00 | 0.13 | 0.00 | 55 | 1018.4 |
| 20260507152405 | 64 | 1 | 3.0 | 8.0 | 0.00 | 0.13 | 0.00 | 53 | 1018.5 |
| 20260507151904 | 64 | 1 | 4.0 | 8.0 | 0.00 | 0.13 | 0.00 | 55 | 1018.5 |
| 20260507151405 | 63 | 7 | 4.0 | 9.0 | 0.00 | 0.13 | 0.00 | 55 | 1018.6 |
| 20260507150905 | 63 | 349 | 2.0 | 7.0 | 0.00 | 0.13 | 0.00 | 55 | 1018.6 |
| 20260507150405 | 63 | 334 | 6.0 | 10.0 | 0.00 | 0.13 | 0.00 | 55 | 1018.6 |
| 20260507145905 | 62 | 338 | 6.0 | 9.0 | 0.00 | 0.13 | 0.00 | 56 | 1018.6 |
| 20260507145404 | 62 | 9 | 3.0 | 6.0 | 0.00 | 0.13 | 0.00 | 58 | 1018.5 |
| 20260507144904 | 62 | 5 | 2.0 | 9.0 | 0.00 | 0.13 | 0.00 | 58 | 1018.6 |
| 20260507144405 | 61 | 309 | 3.0 | 8.0 | 0.00 | 0.13 | 0.00 | 58 | 1018.6 |
| 20260507143905 | 61 | 1 | 4.0 | 9.0 | 0.00 | 0.13 | 0.00 | 57 | 1018.6 |
| 20260507143404 | 61 | 314 | 6.0 | 12.0 | 0.00 | 0.13 | 0.00 | 57 | 1018.7 |
| 20260507141905 | 60 | 296 | 3.0 | 5.0 | 0.00 | 0.13 | 0.00 | 59 | 1018.7 |
| 20260507141405 | 60 | 349 | 3.0 | 9.0 | 0.00 | 0.13 | 0.00 | 60 | 1018.8 |
| 20260507140406 | 59 | 316 | 3.0 | 7.0 | 0.00 | 0.13 | 0.00 | 61 | 1018.9 |
| 20260507135905 | 59 | 335 | 3.0 | 5.0 | 0.00 | 0.13 | 0.00 | 61 | 1018.9 |
| 20260507134905 | 59 | 298 | 3.0 | 5.0 | 0.00 | 0.13 | 0.00 | 63 | 1019.2 |
| 20260507134405 | 58 | 265 | 2.0 | 3.0 | 0.00 | 0.13 | 0.00 | 64 | 1019.2 |
| 20260507133905 | 58 | 265 | 5.0 | 7.0 | 0.00 | 0.13 | 0.00 | 65 | 1019.2 |
| 20260507132904 | 58 | 273 | 3.0 | 6.0 | 0.00 | 0.13 | 0.00 | 68 | 1019.1 |
| 20260507131906 | 57 | 211 | 2.0 | 3.0 | 0.00 | 0.13 | 0.00 | 70 | 1019.1 |
| 20260507131420 | 57 | 210 | 2.0 | 3.0 | 0.00 | 0.13 | 0.00 | 71 | 1019.1 |
| 20260507130905 | 56 | 194 | 1.0 | 3.0 | 0.00 | 0.13 | 0.00 | 70 | 1019.1 |
| 20260507130404 | 55 | 194 | 1.0 | 2.0 | 0.00 | 0.13 | 0.00 | 69 | 1019.2 |
| 20260507125905 | 55 | 194 | 1.0 | 2.0 | 0.00 | 0.13 | 0.00 | 69 | 1019.2 |
| 20260507125405 | 55 | 194 | 1.0 | 2.0 | 0.00 | 0.13 | 0.00 | 69 | 1019.1 |
| 20260507124905 | 54 | 198 | 1.0 | 2.0 | 0.00 | 0.13 | 0.00 | 69 | 1019.1 |
| 20260507123905 | 54 | 239 | 0.0 | 1.0 | 0.00 | 0.13 | 0.00 | 68 | 1018.9 |
| 20260507123405 | 54 | 240 | 1.0 | 3.0 | 0.00 | 0.13 | 0.00 | 68 | 1018.8 |
| 20260507122905 | 53 | 245 | 1.0 | 2.0 | 0.00 | 0.13 | 0.00 | 68 | 1018.7 |
| 20260507122405 | 53 | 323 | 0.0 | 2.0 | 0.00 | 0.13 | 0.00 | 68 | 1018.8 |
| 20260507120905 | 53 | 323 | 0.0 | 0.0 | 0.00 | 0.13 | 0.00 | 67 | 1018.6 |
| 20260507120405 | 53 | 323 | 0.0 | 0.0 | 0.00 | 0.13 | 0.00 | 68 | 1018.5 |
| 20260507115905 | 53 | 323 | 0.0 | 0.0 | 0.00 | 0.13 | 0.00 | 68 | 1018.6 |
| 20260507115405 | 53 | 323 | 0.0 | 2.0 | 0.00 | 0.13 | 0.00 | 68 | 1018.4 |
| 20260507114904 | 53 | 323 | 1.0 | 3.0 | 0.00 | 0.13 | 0.00 | 68 | 1018.5 |
| 20260507114404 | 53 | 325 | 2.0 | 3.0 | 0.00 | 0.13 | 0.00 | 68 | 1018.3 |
| 20260507113905 | 53 | 339 | 2.0 | 3.0 | 0.00 | 0.13 | 0.00 | 68 | 1018.3 |
| 20260507113405 | 53 | 318 | 2.0 | 3.0 | 0.00 | 0.13 | 0.00 | 68 | 1018.2 |
| 20260507112404 | 53 | 262 | 1.0 | 2.0 | 0.00 | 0.13 | 0.00 | 67 | 1018.1 |
| 20260507111405 | 53 | 261 | 2.0 | 3.0 | 0.00 | 0.13 | 0.00 | 68 | 1018.2 |
| 20260507110905 | 53 | 299 | 2.0 | 3.0 | 0.00 | 0.13 | 0.00 | 68 | 1018.1 |
| 20260507105904 | 53 | 318 | 1.0 | 3.0 | 0.00 | 0.13 | 0.00 | 68 | 1017.8 |
| 20260507105405 | 53 | 322 | 2.0 | 5.0 | 0.00 | 0.13 | 0.00 | 68 | 1017.4 |
| 20260507104905 | 53 | 318 | 3.0 | 9.0 | 0.00 | 0.13 | 0.00 | 68 | 1017.0 |
| 20260507103905 | 53 | 317 | 3.0 | 8.0 | 0.00 | 0.13 | 0.00 | 67 | 1016.9 |
| 20260507103405 | 53 | 338 | 3.0 | 7.0 | 0.00 | 0.13 | 0.00 | 67 | 1016.8 |
| 20260507102905 | 53 | 339 | 4.0 | 7.0 | 0.00 | 0.13 | 0.00 | 67 | 1016.6 |
| 20260507102405 | 53 | 346 | 4.0 | 6.0 | 0.00 | 0.13 | 0.00 | 67 | 1016.5 |
| 20260507101905 | 53 | 14 | 3.0 | 6.0 | 0.00 | 0.13 | 0.00 | 67 | 1016.6 |
| 20260507101405 | 53 | 348 | 2.0 | 3.0 | 0.00 | 0.13 | 0.00 | 67 | 1016.8 |
| 20260507100904 | 53 | 355 | 2.0 | 3.0 | 0.00 | 0.13 | 0.00 | 66 | 1016.8 |
| 20260507100405 | 53 | 357 | 2.0 | 3.0 | 0.00 | 0.13 | 0.00 | 66 | 1016.7 |
| 20260507095405 | 53 | 14 | 2.0 | 3.0 | 0.00 | 0.13 | 0.00 | 66 | 1016.5 |
| 20260507093905 | 54 | 5 | 2.0 | 5.0 | 0.00 | 0.13 | 0.00 | 66 | 1016.7 |
| 20260507093405 | 54 | 351 | 2.0 | 5.0 | 0.00 | 0.13 | 0.00 | 66 | 1016.6 |
| 20260507092904 | 54 | 10 | 2.0 | 3.0 | 0.00 | 0.13 | 0.00 | 66 | 1016.6 |
| 20260507091904 | 54 | 350 | 3.0 | 5.0 | 0.00 | 0.13 | 0.00 | 66 | 1016.4 |
| 20260507091405 | 54 | 1 | 2.0 | 5.0 | 0.00 | 0.13 | 0.00 | 66 | 1016.3 |
| 20260507090905 | 54 | 350 | 3.0 | 6.0 | 0.00 | 0.13 | 0.00 | 66 | 1016.4 |
| 20260507090404 | 54 | 0 | 3.0 | 6.0 | 0.00 | 0.13 | 0.00 | 66 | 1016.4 |
| 20260507085905 | 54 | 354 | 2.0 | 6.0 | 0.00 | 0.13 | 0.00 | 66 | 1016.3 |
| 20260507085404 | 54 | 345 | 2.0 | 5.0 | 0.00 | 0.13 | 0.00 | 66 | 1016.4 |
| 20260507084904 | 54 | 346 | 3.0 | 6.0 | 0.00 | 0.13 | 0.00 | 66 | 1016.3 |
| 20260507084405 | 54 | 342 | 3.0 | 6.0 | 0.00 | 0.13 | 0.00 | 66 | 1016.3 |
| 20260507083905 | 54 | 2 | 4.0 | 8.0 | 0.00 | 0.13 | 0.00 | 66 | 1016.2 |
| 20260507083405 | 54 | 352 | 4.0 | 6.0 | 0.00 | 0.13 | 0.00 | 66 | 1016.2 |
| 20260507082905 | 54 | 4 | 3.0 | 9.0 | 0.00 | 0.13 | 0.00 | 66 | 1016.3 |
| 20260507082404 | 54 | 341 | 5.0 | 9.0 | 0.00 | 0.13 | 0.00 | 66 | 1016.1 |
| 20260507081905 | 55 | 348 | 3.0 | 5.0 | 0.00 | 0.13 | 0.00 | 66 | 1016.1 |
| 20260507081404 | 55 | 4 | 4.0 | 8.0 | 0.00 | 0.13 | 0.00 | 66 | 1016.0 |
| 20260507080405 | 55 | 21 | 3.0 | 7.0 | 0.00 | 0.13 | 0.00 | 66 | 1015.9 |
| 20260507075904 | 55 | 34 | 3.0 | 8.0 | 0.00 | 0.13 | 0.00 | 66 | 1015.9 |
| 20260507075404 | 55 | 15 | 3.0 | 8.0 | 0.00 | 0.13 | 0.00 | 66 | 1015.8 |
| 20260507074905 | 55 | 26 | 4.0 | 8.0 | 0.00 | 0.13 | 0.00 | 66 | 1015.7 |
| 20260507074404 | 55 | 18 | 2.0 | 6.0 | 0.00 | 0.13 | 0.00 | 66 | 1015.7 |
| 20260507073905 | 55 | 23 | 2.0 | 8.0 | 0.00 | 0.13 | 0.00 | 65 | 1015.5 |
| 20260507072905 | 55 | 23 | 3.0 | 7.0 | 0.00 | 0.13 | 0.00 | 65 | 1015.4 |
| 20260507072405 | 55 | 15 | 3.0 | 8.0 | 0.00 | 0.13 | 0.00 | 65 | 1015.6 |
| 20260507071904 | 55 | 15 | 3.0 | 6.0 | 0.00 | 0.13 | 0.00 | 65 | 1015.6 |
| 20260507071405 | 55 | 37 | 3.0 | 5.0 | 0.00 | 0.13 | 0.00 | 65 | 1015.7 |
| 20260507070904 | 55 | 44 | 2.0 | 5.0 | 0.00 | 0.13 | 0.00 | 65 | 1015.6 |
| 20260507070405 | 56 | 23 | 4.0 | 8.0 | 0.00 | 0.13 | 0.00 | 65 | 1015.6 |
| 20260507065905 | 56 | 45 | 3.0 | 8.0 | 0.00 | 0.13 | 0.00 | 65 | 1015.7 |
| 20260507065404 | 56 | 51 | 4.0 | 7.0 | 0.00 | 0.13 | 0.00 | 65 | 1015.6 |
| 20260507064905 | 56 | 50 | 3.0 | 9.0 | 0.00 | 0.13 | 0.00 | 65 | 1015.7 |
| 20260507064404 | 56 | 54 | 4.0 | 8.0 | 0.00 | 0.13 | 0.00 | 64 | 1015.8 |
| 20260507063405 | 56 | 52 | 5.0 | 10.0 | 0.00 | 0.13 | 0.00 | 65 | 1015.7 |
| 20260507062905 | 56 | 41 | 5.0 | 10.0 | 0.00 | 0.13 | 0.00 | 64 | 1015.7 |
| 20260507062405 | 56 | 52 | 4.0 | 9.0 | 0.00 | 0.13 | 0.00 | 64 | 1015.6 |
| 20260507061905 | 56 | 49 | 5.0 | 8.0 | 0.00 | 0.13 | 0.00 | 64 | 1015.5 |
| 20260507061405 | 56 | 53 | 5.0 | 7.0 | 0.00 | 0.13 | 0.00 | 64 | 1015.5 |
| 20260507060905 | 57 | 49 | 5.0 | 7.0 | 0.00 | 0.13 | 0.00 | 63 | 1015.4 |
| 20260507060404 | 57 | 58 | 4.0 | 9.0 | 0.00 | 0.13 | 0.00 | 63 | 1015.5 |
| 20260507054904 | 57 | 53 | 6.0 | 10.0 | 0.00 | 0.13 | 0.00 | 62 | 1015.6 |
| 20260507053905 | 57 | 49 | 4.0 | 9.0 | 0.00 | 0.13 | 0.00 | 61 | 1015.7 |
| 20260507053405 | 57 | 40 | 4.0 | 9.0 | 0.00 | 0.13 | 0.00 | 61 | 1015.6 |
| 20260507052905 | 57 | 40 | 3.0 | 7.0 | 0.00 | 0.13 | 0.00 | 61 | 1015.7 |
| 20260507052405 | 57 | 45 | 3.0 | 6.0 | 0.00 | 0.13 | 0.00 | 60 | 1015.7 |
| 20260507051905 | 58 | 40 | 5.0 | 10.0 | 0.00 | 0.13 | 0.00 | 60 | 1015.7 |
| 20260507051405 | 58 | 50 | 5.0 | 10.0 | 0.00 | 0.13 | 0.00 | 60 | 1015.7 |
| 20260507050905 | 58 | 47 | 5.0 | 10.0 | 0.00 | 0.13 | 0.00 | 60 | 1015.7 |
| 20260507050405 | 58 | 54 | 5.0 | 7.0 | 0.00 | 0.13 | 0.00 | 60 | 1015.8 |
| 20260507044904 | 58 | 38 | 5.0 | 12.0 | 0.00 | 0.13 | 0.13 | 59 | 1015.7 |
| 20260507044404 | 58 | 35 | 6.0 | 12.0 | 0.00 | 0.13 | 0.13 | 59 | 1015.8 |
| 20260507043905 | 58 | 32 | 5.0 | 12.0 | 0.00 | 0.13 | 0.13 | 59 | 1015.9 |
| 20260507043405 | 58 | 57 | 4.0 | 9.0 | 0.00 | 0.13 | 0.13 | 59 | 1015.8 |
| 20260507042905 | 58 | 34 | 5.0 | 10.0 | 0.00 | 0.13 | 0.13 | 59 | 1015.9 |
| 20260507042405 | 58 | 17 | 3.0 | 10.0 | 0.00 | 0.13 | 0.13 | 59 | 1016.0 |
| 20260507041905 | 58 | 25 | 7.0 | 12.0 | 0.00 | 0.13 | 0.13 | 59 | 1016.0 |
| 20260507040905 | 58 | 6 | 7.0 | 13.0 | 0.00 | 0.13 | 0.13 | 59 | 1016.2 |
| 20260507040404 | 58 | 4 | 6.0 | 14.0 | 0.00 | 0.13 | 0.13 | 59 | 1016.3 |
| 20260507035904 | 58 | 356 | 6.0 | 14.0 | 0.00 | 0.13 | 0.13 | 59 | 1016.2 |
| 20260507035405 | 58 | 3 | 7.0 | 14.0 | 0.00 | 0.13 | 0.13 | 59 | 1016.1 |
| 20260507034404 | 58 | 6 | 7.0 | 17.0 | 0.00 | 0.13 | 0.13 | 60 | 1016.0 |
| 20260507033904 | 58 | 351 | 6.0 | 14.0 | 0.00 | 0.13 | 0.13 | 60 | 1016.1 |
| 20260507033405 | 59 | 356 | 5.0 | 12.0 | 0.00 | 0.13 | 0.13 | 60 | 1016.0 |
| 20260507032904 | 58 | 16 | 5.0 | 10.0 | 0.00 | 0.13 | 0.13 | 60 | 1015.8 |
| 20260507032405 | 58 | 344 | 6.0 | 12.0 | 0.00 | 0.13 | 0.13 | 61 | 1015.7 |
| 20260507031905 | 58 | 348 | 6.0 | 13.0 | 0.00 | 0.13 | 0.13 | 61 | 1015.6 |
| 20260507030905 | 58 | 12 | 4.0 | 14.0 | 0.00 | 0.13 | 0.13 | 61 | 1015.5 |
| 20260507030404 | 58 | 9 | 5.0 | 12.0 | 0.00 | 0.13 | 0.13 | 61 | 1015.4 |
| 20260507025905 | 58 | 1 | 5.0 | 15.0 | 0.00 | 0.13 | 0.13 | 62 | 1015.3 |
| 20260507025404 | 58 | 30 | 4.0 | 10.0 | 0.00 | 0.13 | 0.13 | 62 | 1015.3 |
| 20260507024904 | 58 | 3 | 5.0 | 9.0 | 0.00 | 0.13 | 0.13 | 62 | 1015.2 |
| 20260507023405 | 58 | 4 | 4.0 | 12.0 | 0.00 | 0.13 | 0.13 | 63 | 1014.9 |
| 20260507022905 | 59 | 26 | 4.0 | 10.0 | 0.00 | 0.13 | 0.13 | 63 | 1014.9 |
| 20260507022405 | 59 | 47 | 3.0 | 9.0 | 0.00 | 0.13 | 0.13 | 63 | 1014.7 |
| 20260507020404 | 59 | 4 | 6.0 | 13.0 | 0.00 | 0.13 | 0.13 | 63 | 1014.5 |
| 20260507015905 | 58 | 12 | 4.0 | 12.0 | 0.00 | 0.13 | 0.13 | 63 | 1014.3 |
| 20260507014904 | 58 | 12 | 5.0 | 12.0 | 0.00 | 0.13 | 0.13 | 63 | 1014.0 |
| 20260507014405 | 58 | 354 | 6.0 | 12.0 | 0.00 | 0.13 | 0.13 | 63 | 1014.0 |
| 20260507013404 | 58 | 356 | 6.0 | 12.0 | 0.00 | 0.13 | 0.13 | 63 | 1013.7 |
| 20260507012904 | 58 | 357 | 5.0 | 12.0 | 0.00 | 0.13 | 0.13 | 63 | 1013.7 |
| 20260507012404 | 58 | 16 | 5.0 | 9.0 | 0.00 | 0.13 | 0.13 | 63 | 1013.6 |
| 20260507011905 | 58 | 339 | 6.0 | 12.0 | 0.00 | 0.13 | 0.13 | 63 | 1013.5 |
| 20260507011405 | 58 | 16 | 3.0 | 10.0 | 0.00 | 0.13 | 0.13 | 63 | 1013.4 |
| 20260507010904 | 58 | 339 | 6.0 | 12.0 | 0.00 | 0.13 | 0.13 | 63 | 1013.3 |
| 20260507010405 | 58 | 358 | 5.0 | 12.0 | 0.00 | 0.13 | 0.13 | 63 | 1013.3 |
| 20260507005905 | 58 | 16 | 5.0 | 10.0 | 0.00 | 0.13 | 0.13 | 63 | 1013.3 |
| 20260507004905 | 58 | 352 | 4.0 | 9.0 | 0.00 | 0.13 | 0.13 | 63 | 1013.3 |
| 20260507004405 | 58 | 50 | 4.0 | 8.0 | 0.00 | 0.13 | 0.13 | 63 | 1013.3 |
| 20260507003904 | 58 | 349 | 6.0 | 10.0 | 0.00 | 0.13 | 0.13 | 62 | 1013.2 |
| 20260507003404 | 58 | 16 | 5.0 | 9.0 | 0.00 | 0.13 | 0.13 | 63 | 1013.1 |
| 20260507002904 | 58 | 6 | 5.0 | 13.0 | 0.00 | 0.13 | 0.13 | 62 | 1012.9 |
| 20260507002405 | 58 | 357 | 5.0 | 12.0 | 0.00 | 0.13 | 0.13 | 62 | 1012.9 |
| 20260507001904 | 58 | 39 | 6.0 | 12.0 | 0.00 | 0.13 | 0.13 | 62 | 1012.8 |
| 20260507001404 | 58 | 36 | 6.0 | 12.0 | 0.00 | 0.13 | 0.13 | 62 | 1012.9 |
| 20260507000904 | 58 | 357 | 7.0 | 13.0 | 0.00 | 0.13 | 0.13 | 62 | 1012.9 |
| 20260507000405 | 58 | 1 | 6.0 | 12.0 | 0.00 | 0.13 | 0.13 | 62 | 1012.8 |
| 20260506235905 | 58 | 16 | 8.0 | 15.0 | 0.00 | 0.13 | 0.13 | 62 | 1012.6 |
| 20260506234905 | 58 | 339 | 7.0 | 12.0 | 0.00 | 0.13 | 0.13 | 62 | 1012.7 |
| 20260506234405 | 58 | 358 | 8.0 | 13.0 | 0.00 | 0.13 | 0.13 | 62 | 1012.7 |
| 20260506233905 | 58 | 25 | 3.0 | 12.0 | 0.00 | 0.13 | 0.13 | 62 | 1012.8 |
| 20260506233404 | 58 | 338 | 3.0 | 10.0 | 0.00 | 0.13 | 0.13 | 63 | 1012.7 |
| 20260506232906 | 58 | 353 | 6.0 | 16.0 | 0.00 | 0.13 | 0.13 | 63 | 1012.7 |
| 20260506231905 | 58 | 22 | 5.0 | 14.0 | 0.00 | 0.13 | 0.13 | 63 | 1012.6 |
| 20260506231405 | 58 | 357 | 5.0 | 12.0 | 0.00 | 0.13 | 0.13 | 63 | 1012.4 |
| 20260506230919 | 58 | 359 | 7.0 | 12.0 | 0.00 | 0.13 | 0.13 | 63 | 1012.3 |
| 20260506225404 | 58 | 344 | 8.0 | 12.0 | 0.00 | 0.13 | 0.13 | 63 | 1012.5 |
| 20260506224405 | 58 | 339 | 7.0 | 12.0 | 0.00 | 0.13 | 0.13 | 63 | 1012.4 |
| 20260506223905 | 58 | 340 | 6.0 | 13.0 | 0.00 | 0.13 | 0.13 | 63 | 1012.2 |
| 20260506222905 | 59 | 332 | 7.0 | 12.0 | 0.00 | 0.13 | 0.13 | 63 | 1012.1 |
| 20260506222404 | 59 | 8 | 6.0 | 12.0 | 0.00 | 0.13 | 0.13 | 64 | 1011.9 |
| 20260506221405 | 58 | 23 | 6.0 | 14.0 | 0.05 | 0.13 | 0.13 | 64 | 1011.9 |
| 20260506220904 | 58 | 343 | 5.0 | 12.0 | 0.08 | 0.13 | 0.13 | 64 | 1011.8 |
| 20260506220405 | 58 | 345 | 7.0 | 12.0 | 0.12 | 0.13 | 0.13 | 64 | 1011.7 |
| 20260506215904 | 58 | 0 | 7.0 | 12.0 | 0.13 | 0.13 | 0.13 | 64 | 1011.5 |
| 20260506215405 | 59 | 333 | 6.0 | 14.0 | 0.13 | 0.13 | 0.13 | 64 | 1011.5 |
| 20260506214405 | 59 | 347 | 6.0 | 10.0 | 0.13 | 0.13 | 0.13 | 64 | 1011.5 |
| 20260506213904 | 59 | 346 | 6.0 | 10.0 | 0.13 | 0.13 | 0.13 | 64 | 1011.7 |
| 20260506212905 | 59 | 352 | 5.0 | 10.0 | 0.13 | 0.13 | 0.13 | 64 | 1011.7 |
| 20260506211906 | 59 | 13 | 2.0 | 7.0 | 0.12 | 0.12 | 0.12 | 62 | 1011.7 |
| 20260506211405 | 59 | 332 | 3.0 | 6.0 | 0.08 | 0.08 | 0.08 | 62 | 1011.9 |
| 20260506210904 | 59 | 326 | 5.0 | 9.0 | 0.05 | 0.05 | 0.05 | 61 | 1011.8 |
| 20260506210405 | 59 | 321 | 3.0 | 7.0 | 0.01 | 0.01 | 0.01 | 61 | 1011.9 |
| 20260506205404 | 59 | 308 | 3.0 | 6.0 | 0.00 | 0.00 | 0.00 | 61 | 1012.2 |
| 20260506203904 | 60 | 335 | 3.0 | 12.0 | 0.00 | 0.00 | 0.00 | 59 | 1012.0 |
| 20260506203405 | 60 | 319 | 4.0 | 10.0 | 0.00 | 0.00 | 0.00 | 59 | 1012.1 |
| 20260506202904 | 60 | 329 | 6.0 | 12.0 | 0.00 | 0.00 | 0.00 | 58 | 1012.1 |
| 20260506201905 | 60 | 351 | 7.0 | 13.0 | 0.00 | 0.00 | 0.00 | 59 | 1012.3 |
| 20260506201404 | 59 | 335 | 9.0 | 13.0 | 0.00 | 0.00 | 0.00 | 60 | 1012.3 |
| 20260506200905 | 59 | 345 | 9.0 | 13.0 | 0.00 | 0.00 | 0.00 | 60 | 1012.3 |
| 20260506200405 | 59 | 345 | 7.0 | 12.0 | 0.00 | 0.00 | 0.00 | 60 | 1012.6 |
| 20260506195905 | 58 | 356 | 6.0 | 12.0 | 0.00 | 0.00 | 0.00 | 59 | 1012.7 |
| 20260506195404 | 58 | 335 | 7.0 | 12.0 | 0.00 | 0.00 | 0.00 | 59 | 1012.7 |
| 20260506194904 | 58 | 2 | 4.0 | 8.0 | 0.00 | 0.00 | 0.00 | 59 | 1013.2 |
| 20260506194405 | 58 | 301 | 7.0 | 12.0 | 0.00 | 0.00 | 0.00 | 60 | 1012.9 |
| 20260506192904 | 58 | 338 | 6.0 | 14.0 | 0.00 | 0.00 | 0.00 | 59 | 1011.9 |
| 20260506191904 | 58 | 320 | 6.0 | 12.0 | 0.00 | 0.00 | 0.00 | 59 | 1013.0 |
| 20260506191404 | 58 | 316 | 3.0 | 10.0 | 0.00 | 0.00 | 0.00 | 59 | 1013.0 |
| 20260506190904 | 58 | 299 | 5.0 | 10.0 | 0.00 | 0.00 | 0.00 | 59 | 1012.7 |
| 20260506190404 | 58 | 324 | 6.0 | 12.0 | 0.00 | 0.00 | 0.00 | 59 | 1012.4 |
| 20260506185904 | 58 | 314 | 5.0 | 12.0 | 0.00 | 0.00 | 0.00 | 59 | 1012.1 |
| 20260506185405 | 58 | 327 | 7.0 | 12.0 | 0.00 | 0.00 | 0.00 | 59 | 1011.9 |
| 20260506184905 | 58 | 344 | 4.0 | 10.0 | 0.00 | 0.00 | 0.00 | 59 | 1012.0 |
| 20260506184404 | 58 | 20 | 3.0 | 8.0 | 0.00 | 0.00 | 0.00 | 58 | 1012.5 |
| 20260506183905 | 58 | 51 | 4.0 | 9.0 | 0.00 | 0.00 | 0.00 | 59 | 1012.4 |
| 20260506183404 | 58 | 11 | 4.0 | 9.0 | 0.00 | 0.00 | 0.00 | 58 | 1012.5 |
| 20260506182905 | 58 | 3 | 3.0 | 6.0 | 0.00 | 0.00 | 0.00 | 59 | 1012.3 |
| 20260506180405 | 58 | 347 | 10.0 | 18.0 | 0.00 | 0.00 | 0.00 | 59 | 1010.6 |
| 20260506175905 | 58 | 344 | 12.0 | 18.0 | 0.00 | 0.00 | 0.00 | 58 | 1010.7 |
| 20260506175405 | 58 | 343 | 13.0 | 21.0 | 0.00 | 0.00 | 0.00 | 59 | 1010.7 |
| 20260506174904 | 58 | 346 | 13.0 | 20.0 | 0.00 | 0.00 | 0.00 | 58 | 1010.6 |
| 20260506174404 | 58 | 340 | 12.0 | 20.0 | 0.00 | 0.00 | 0.00 | 59 | 1011.1 |
| 20260506173905 | 58 | 343 | 9.0 | 17.0 | 0.00 | 0.00 | 0.00 | 60 | 1011.3 |
| 20260506173404 | 58 | 343 | 10.0 | 17.0 | 0.00 | 0.00 | 0.00 | 60 | 1011.4 |
| 20260506172904 | 57 | 350 | 6.0 | 12.0 | 0.00 | 0.00 | 0.00 | 59 | 1012.2 |
| 20260506172404 | 57 | 11 | 6.0 | 10.0 | 0.00 | 0.00 | 0.00 | 59 | 1012.7 |
| 20260506171905 | 57 | 335 | 7.0 | 12.0 | 0.00 | 0.00 | 0.00 | 59 | 1013.1 |
| 20260506171404 | 57 | 22 | 6.0 | 12.0 | 0.00 | 0.00 | 0.00 | 59 | 1013.3 |
| 20260506170905 | 58 | 329 | 5.0 | 10.0 | 0.00 | 0.00 | 0.00 | 58 | 1013.2 |
| 20260506165905 | 58 | 312 | 7.0 | 16.0 | 0.00 | 0.00 | 0.00 | 58 | 1012.0 |
| 20260506164905 | 58 | 31 | 7.0 | 15.0 | 0.00 | 0.00 | 0.00 | 59 | 1011.6 |
| 20260506164405 | 58 | 7 | 6.0 | 12.0 | 0.00 | 0.00 | 0.00 | 60 | 1011.9 |
| 20260506163905 | 57 | 352 | 6.0 | 12.0 | 0.00 | 0.00 | 0.00 | 60 | 1012.6 |
| 20260506163404 | 57 | 52 | 2.0 | 12.0 | 0.00 | 0.00 | 0.00 | 61 | 1012.5 |
| 20260506162904 | 57 | 343 | 8.0 | 13.0 | 0.00 | 0.00 | 0.00 | 61 | 1012.4 |
| 20260506162404 | 57 | 37 | 5.0 | 12.0 | 0.00 | 0.00 | 0.00 | 61 | 1012.4 |
| 20260506161904 | 56 | 358 | 4.0 | 14.0 | 0.00 | 0.00 | 0.00 | 62 | 1012.6 |
| 20260506161404 | 56 | 353 | 7.0 | 13.0 | 0.00 | 0.00 | 0.00 | 62 | 1012.6 |
| 20260506160905 | 56 | 341 | 8.0 | 13.0 | 0.00 | 0.00 | 0.00 | 62 | 1012.6 |
| 20260506160404 | 56 | 11 | 6.0 | 12.0 | 0.00 | 0.00 | 0.00 | 62 | 1012.6 |
| 20260506155904 | 56 | 3 | 5.0 | 10.0 | 0.00 | 0.00 | 0.00 | 62 | 1012.7 |
| 20260506155405 | 55 | 0 | 4.0 | 8.0 | 0.00 | 0.00 | 0.00 | 62 | 1012.7 |
| 20260506154904 | 55 | 344 | 6.0 | 9.0 | 0.00 | 0.00 | 0.00 | 61 | 1013.3 |
| 20260506154404 | 55 | 355 | 6.0 | 12.0 | 0.00 | 0.00 | 0.00 | 61 | 1013.4 |
| 20260506153905 | 55 | 337 | 8.0 | 12.0 | 0.00 | 0.00 | 0.00 | 61 | 1013.5 |